Prague, Czech Republic

5:24 AM CEST on April 25, 2018 (GMT +0200)
Ruzyne

Weather History for LKPR - April, 2013

Change the Weather History Date:

Tuesday, April 2, 2013

  Actual Average Record
Temperature  
Mean Temperature 32 °F -  
Max Temperature 37 °F 57 °F 67 °F (2017)
Min Temperature 27 °F 37 °F 27 °F (2013)
Degree Days  
Heating Degree Days 33    
Moisture  
Dew Point 24 °F    
Average Humidity 72    
Maximum Humidity 93    
Minimum Humidity 50    
Precipitation  
Precipitation 0.00 in 0.05 in - ()
Sea Level Pressure  
Sea Level Pressure 29.85 in    
Wind  
Wind Speed 7 mph ()    
Max Wind Speed 15 mph    
Max Gust Speed -    
Visibility 6.2 miles    
Events      
Averages and records for this station are not official NWS values.
T = Trace of Precipitation, MM = Missing Value Source: Averaged Metar Reports

Daily Weather History Graph

Daily Weather History Graph

Search for Another Location

Airport or City:

Astronomy

Apr. 02, 2013 Rise Set
Actual Time 6:37 AM CEST 7:36 PM CEST
Civil Twilight 6:04 AM CEST 8:09 PM CEST
Nautical Twilight 5:24 AM CEST 8:49 PM CEST
Astronomical Twilight 4:42 AM CEST 9:31 PM CEST
Moon 1:50 AM CEST (4/2) 10:44 AM CEST (4/2)
Length of Visible Light 14h 05m
Length of Day
12h 59m
Waning Gibbous, 59% of the Moon is Illuminated
Apr 2
Waning Gibbous
Apr 3
Last Quarter
Apr 10
New
Apr 18
First Quarter
Apr 25
Full

Hourly Weather History & Observations

Time (CEST) Temp. Windchill Dew Point Humidity Pressure Visibility Wind Dir Wind Speed Gust Speed Precip Events Conditions
12:00 AM 28.4 °F 24.6 °F 24.8 °F 86% 29.83 in 6.2 mi NNE 3.5 mph - N/A   Overcast
12:30 AM 28.4 °F 23.3 °F 23.0 °F 80% 29.83 in 6.2 mi NE 4.6 mph - N/A   Overcast
1:00 AM 28.4 °F 24.6 °F 24.8 °F 86% 29.83 in 6.2 mi ENE 3.5 mph - N/A   Overcast
1:30 AM 28.4 °F 24.6 °F 23.0 °F 80% 29.83 in 6.2 mi ENE 3.5 mph - N/A   Overcast
2:00 AM 28 °F - 23 °F 74% 29.91 in 16 mi NE 6.7 mph - -   Overcast
2:00 AM 28.4 °F 24.6 °F 23.0 °F 80% 29.83 in 6.2 mi NE 3.5 mph - N/A   Overcast
2:30 AM 28.4 °F 23.3 °F 23.0 °F 80% 29.83 in 6.2 mi NNE 4.6 mph - N/A   Overcast
3:00 AM 28.4 °F 24.6 °F 23.0 °F 80% 29.83 in 6.2 mi NNE 3.5 mph - N/A   Overcast
3:30 AM 28.4 °F 23.3 °F 23.0 °F 80% 29.83 in 6.2 mi NNE 4.6 mph - N/A   Overcast
4:00 AM 28.4 °F 22.2 °F 24.8 °F 86% 29.83 in 6.2 mi NE 5.8 mph - N/A   Overcast
4:30 AM 26.6 °F 21.2 °F 23.0 °F 86% 29.83 in 6.2 mi NNE 4.6 mph - N/A   Overcast
5:00 AM 26.6 °F 20.0 °F 23.0 °F 86% 29.83 in 6.2 mi NNE 5.8 mph - N/A   Overcast
5:30 AM 26.6 °F 20.0 °F 23.0 °F 86% 29.80 in 6.2 mi NNE 5.8 mph - N/A   Overcast
6:00 AM 26.6 °F 21.2 °F 24.8 °F 93% 29.83 in 6.2 mi NNE 4.6 mph - N/A   Overcast
6:30 AM 26.6 °F 20.0 °F 24.8 °F 93% 29.83 in 5.0 mi NNE 5.8 mph - N/A   Overcast
7:00 AM 26.6 °F 20.0 °F 24.8 °F 93% 29.83 in 4.3 mi NNE 5.8 mph - N/A   Overcast
7:13 AM 26.6 °F 19.1 °F 24.8 °F 93% 29.83 in 4.3 mi NE 6.9 mph - N/A   Overcast
7:30 AM 28.4 °F 21.2 °F 24.8 °F 86% 29.83 in 4.3 mi NE 6.9 mph - N/A   Overcast
8:00 AM 28 °F - 25 °F 83% 29.91 in 4 mi NE 6.7 mph - -   Mist
8:00 AM 28.4 °F 21.2 °F 24.8 °F 86% 29.83 in 4.3 mi NNE 6.9 mph - N/A   Mostly Cloudy
8:30 AM 28.4 °F 20.4 °F 24.8 °F 86% 29.83 in 3.7 mi NE 8.1 mph - N/A   Overcast
9:00 AM 30.2 °F 21.9 °F 26.6 °F 86% 29.83 in 4.3 mi ENE 9.2 mph - N/A   Scattered Clouds
9:30 AM 30.2 °F 21.9 °F 26.6 °F 86% 29.83 in 5.6 mi ENE 9.2 mph - N/A   Scattered Clouds
10:00 AM 32.0 °F 23.0 °F 26.6 °F 80% 29.83 in 6.2 mi ENE 11.5 mph - N/A   Scattered Clouds
10:30 AM 33.8 °F 24.3 °F 24.8 °F 70% 29.83 in 6.2 mi ENE 13.8 mph - N/A   Scattered Clouds
11:00 AM 33.8 °F 24.3 °F 24.8 °F 70% 29.83 in 6.2 mi East 13.8 mph - N/A   Scattered Clouds
11:30 AM 33.8 °F 24.3 °F 24.8 °F 70% 29.86 in 6.2 mi East 13.8 mph - N/A   Mostly Cloudy
12:00 PM 33.8 °F 24.3 °F 24.8 °F 70% 29.86 in 6.2 mi East 13.8 mph - N/A   Scattered Clouds
12:30 PM 35.6 °F 27.1 °F 23.0 °F 60% 29.83 in 6.2 mi East 12.7 mph - N/A   Scattered Clouds
1:00 PM 35.6 °F 27.1 °F 24.8 °F 65% 29.83 in 6.2 mi East 12.7 mph - N/A   Partly Cloudy
1:30 PM 35.6 °F 27.5 °F 24.8 °F 65% 29.83 in 6.2 mi East 11.5 mph - N/A   Scattered Clouds
2:00 PM 36 °F - 24 °F 50% 29.90 in 12 mi East 13.4 mph - -   Overcast
2:00 PM 35.6 °F 27.5 °F 24.8 °F 65% 29.83 in 6.2 mi East 11.5 mph - N/A   Overcast
2:30 PM 35.6 °F 27.1 °F 24.8 °F 65% 29.83 in 6.2 mi East 12.7 mph - N/A   Overcast
3:00 PM 37.4 °F 29.3 °F 24.8 °F 60% 29.83 in 6.2 mi East 12.7 mph - N/A   Mostly Cloudy
3:30 PM 37.4 °F 29.3 °F 24.8 °F 60% 29.83 in 6.2 mi East 12.7 mph - N/A   Mostly Cloudy
4:00 PM 37.4 °F 28.9 °F 23.0 °F 56% 29.83 in 6.2 mi East 13.8 mph - N/A   Mostly Cloudy
4:30 PM 37.4 °F 29.8 °F 23.0 °F 56% 29.83 in 6.2 mi ENE 11.5 mph - N/A   Mostly Cloudy
5:00 PM 37.4 °F 29.3 °F 23.0 °F 56% 29.83 in 6.2 mi ENE 12.7 mph - N/A   Mostly Cloudy
5:30 PM 37.4 °F 29.3 °F 23.0 °F 56% 29.83 in 6.2 mi ENE 12.7 mph - N/A   Overcast
6:00 PM 37.4 °F 29.8 °F 23.0 °F 56% 29.86 in 6.2 mi ENE 11.5 mph - N/A   Overcast
6:30 PM 37.4 °F 29.8 °F 23.0 °F 56% 29.86 in 6.2 mi ENE 11.5 mph - N/A   Mostly Cloudy
7:00 PM 35.6 °F 27.5 °F 23.0 °F 60% 29.86 in 6.2 mi NNE 11.5 mph - N/A   Mostly Cloudy
7:30 PM 35.6 °F 28.0 °F 23.0 °F 60% 29.86 in 6.2 mi NE 10.4 mph - N/A   Mostly Cloudy
8:00 PM 35 °F - 24 °F 52% 29.93 in 9 mi NNE 13.4 mph - -   Mostly Cloudy
8:00 PM 35.6 °F 27.1 °F 23.0 °F 60% 29.86 in 6.2 mi NNE 12.7 mph - N/A   Mostly Cloudy
8:30 PM 35.6 °F 27.1 °F 23.0 °F 60% 29.89 in 6.2 mi NE 12.7 mph - N/A   Mostly Cloudy
9:00 PM 33.8 °F 23.9 °F 23.0 °F 65% 29.89 in 6.2 mi East 15.0 mph - N/A   Mostly Cloudy
9:30 PM 33.8 °F 24.3 °F 21.2 °F 60% 29.89 in 6.2 mi ENE 13.8 mph - N/A   Mostly Cloudy
10:00 PM 32.0 °F 22.5 °F 21.2 °F 64% 29.89 in 6.2 mi East 12.7 mph - N/A   Overcast
10:30 PM 32.0 °F 23.0 °F 21.2 °F 64% 29.89 in 6.2 mi ENE 11.5 mph - N/A   Overcast
11:00 PM 32.0 °F 23.6 °F 21.2 °F 64% 29.92 in 6.2 mi NE 10.4 mph - N/A   Overcast
11:30 PM 32.0 °F 24.2 °F 23.0 °F 69% 29.92 in 6.2 mi NE 9.2 mph - N/A   Overcast